Flag for Germany Weather past 2 weeks in Coburg, Bavaria, Germany

Now
72 °F

Scattered clouds.


Feels Like: 76 °F
Forecast: 59 / 84 °F
Wind: 3 mph from North

Location: Bamberg

Current Time: Jun 30, 2015 at 10:45:33 AM

Latest Report: Jun 30, 2015 at 10:00 AM


Visibility: 19 mi

Pressure: 30.15 "Hg

Humidity: 62%

Dew point: 58 °F

Location of CoburgLocation

Historic Weather in Coburg — Graph

°F

Coburg temperature yesterday

Maximum temperature yesterday: 80 °F (at 7:00 PM)
Minimum temperature yesterday: 56 °F (at 6:00 AM)
Average temperature yesterday: 68 °F

Past Weeks' High & Low Weather Summary

 TemperatureHumidityPressure
High80 °F (Jun 29, 7:00 PM)100% (Jun 28, 3:00 AM)30.27 "Hg (Jun 28, 3:00 AM)
Low45 °F (Jun 25, 2:00 AM)27% (Jun 17, 4:00 PM)29.70 "Hg (Jun 23, 1:00 AM)
Average60 °F73%30.08 "Hg
* Reported Jun 15 9:00 AM — Jun 30 9:00 AM, Coburg, Weather by CustomWeather, © 2015

Note: Actual official high and low records may vary slightly from our data, if they occured in-between our weather recording intervals... More about our weather records

Advertising

Coburg weather history for previous 24 hours

 ConditionsComfort  
Time TempWeatherWind HumidityBarometerVisibility
9:00 AM
Tue, Jun 30
69 °FOvercast.2 mph67%30.16 "Hg19 mi
8:00 AM64 °FOvercast.2 mph81%30.15 "Hg14 mi
7:00 AM59 °FOvercast.No wind96%30.16 "Hg7 mi
6:00 AM54 °FFog.1 mph99%30.16 "Hg4 mi
5:00 AM54 °FFog.1 mph98%30.16 "Hg4 mi
4:00 AM55 °FOvercast.1 mph98%30.15 "Hg6 mi
3:00 AM56 °FOvercast.No wind96%30.16 "Hg7 mi
2:00 AM57 °FOvercast.1 mph96%30.16 "Hg7 mi
1:00 AM59 °FOvercast.1 mph94%30.16 "Hg13 mi
12:00 AM60 °FOvercast.1 mph93%30.15 "Hg12 mi
11:00 PM
Mon, Jun 29
63 °FOvercast.1 mph88%30.14 "Hg16 mi
10:00 PM67 °FOvercast.1 mph76%30.13 "Hg31 mi
9:00 PM74 °FOvercast.1 mph65%30.10 "Hg37 mi
8:00 PM78 °FOvercast.3 mph42%30.09 "Hg43 mi
7:00 PM80 °FOvercast.1 mph36%30.09 "Hg43 mi
6:00 PM80 °FPartly sunny.1 mph41%30.09 "Hg43 mi
5:00 PM78 °FPassing clouds.3 mph39%30.09 "Hg43 mi
4:00 PM77 °FScattered clouds.2 mph41%30.10 "Hg43 mi
3:00 PM78 °FPartly sunny.2 mph38%30.11 "Hg31 mi
2:00 PM77 °FScattered clouds.3 mph41%30.12 "Hg28 mi
1:00 PM77 °FOvercast.2 mph41%30.13 "Hg37 mi
12:00 PM75 °FOvercast.2 mph42%30.14 "Hg43 mi
11:00 AM73 °FOvercast.2 mph46%30.14 "Hg34 mi
10:00 AM71 °FOvercast.2 mph53%30.15 "Hg40 mi
Weather by CustomWeather, © 2015

See weather overviewHow to use our weather pages